THOR ABLESTAR DEB, 19302

Orbit data source: Space-Track

THOR ABLESTAR DEB, 19302 is space debris in LEO originally from a launch on Thu, 29 Jun 1961 UTC launched from the Air Force Eastern Test Range (AFETR). Debris objects in space refer to the collection of defunct objects orbiting the Earth. Examples of debris include non-operational satellites, rocket bodies, and fragments generated from explosions, collisions, or faulty payload assembly.

Loading next visibility...
Identifier
19302, 1961-015MC
Orbit
LEO
Country
Flag of USUS
Related business
Manufacturer
Unknown
Mission
Spacecraft
Bus & Motor
Unknown
Mass
Unknown
Launch date (UTC)
1961-06-29 (65 years ago)
Launch vehicle
Unknown
Launch site
Air Force Eastern Test Range (AFETR)
Object type
Payload
Rocket body
Debris
Shape & HBR
Unknown shape, 0.1 m
Radar Cross Section
Small (<0.1 m²)

Expand to show TLE details & history
Last TLE update: 20 hours ago

TLE from 20 hours ago
0 THOR ABLESTAR DEB
1 19302U 61015MC  26106.97188956  .00000669  00000-0  40887-3 0  9997
2 19302  66.8438 321.5864 0052577  16.4829 343.7955 14.11304144946218
Epoch: 2026-04-16T23:19Z
TLE epoch observation values (Epoch: 2026-04-16T23:19:31.257Z)
Latitude
-0.00002°
Longitude
126.59438°
Altitude
820.505 km
Speed
7.462 km/s
True Right ascension
21h 26m 20s
True Declination
0° 00' 00"
Sunlit
Object was in daylight at epoch
Visualization orbit readout
Latitude
Unknown
Longitude
Unknown
Altitude
Unknown
Speed
Unknown
Apparent Right ascension
Unknown
Apparent Declination
Unknown
Sunlit
N/A
Visualization observer readout
Local Sidereal Time
01:50:55
Azimuth
Unknown
Elevation
Unknown
Doppler factor
Unknown
Orbital elements
Apogee altitude
891.306 km
Perigee altitude
815.264 km
Semi-major axis
7,231.422 km
Eccentricity
0.00526
Inclination
66.8438°
RAAN
321.5864°
Arg. of periapsis
16.4829°
True anomaly
343.6263°
Mean anomaly
343.7955°
Eccentric anomaly
343.71101°
Mean motion
3.52945 °/min
Orbital period
102 mins
BSTAR
0.00040887
Loading maneuver chart data...
Computing Atmospheric mass density...
Loading historical data...
Loading historical data...
Loading historical data...
Loading historical data...
Loading historical data...
Loading historical data...
Loading historical data...

Documentation

Showing up to 5 results
|